Regional Weather Roundup
Issued by NWS Burlington, VT

Home | Current Version | Previous Version | Text Only | Print | Product List | Glossary On
Versions: 1 2 3 4 5 6 7 8 9 10 11 12 13 14 15 16 17 18 19 20 21 22 23 24 25 26 27 28 29 30 31 32 33 34 35 36 37 38 39 40 41 42 43 44 45 46 47 48 49 50
000
ASUS41 KBTV 290430
RWRBTV
VERMONT REGIONAL WEATHER ROUNDUP
NATIONAL WEATHER SERVICE BURLINGTON VT
1200 AM EDT TUE JUL 29 2014

NOTE: "FAIR" INDICATES FEW OR NO CLOUDS BELOW 12,000 FEET WITH NO
SIGNIFICANT WEATHER AND/OR OBSTRUCTIONS TO VISIBILITY.

* THESE REPORTS ARE NOT UNDER NWS QUALITY CONTROL AND/OR DO NOT
  REPORT WEATHER SUCH AS PRECIPITATION AND FOG.

VTZ001>019-290500-
_____VERMONT_____


CITY           SKY/WX    TMP DP  RH WIND       PRES   REMARKS
BURLINGTON     LGT RAIN  60  56  86 NW14      29.66R
MONTPELIER     LGT RAIN  58  56  93 W12       29.66R
MORRISVILLE    CLOUDY    58  55  90 NW7       29.64R
ST. JOHNSBURY*   N/A     63  56  78 MISG      29.56R
LYNDONVILLE*     N/A    N/A N/A N/A MISG        N/A
MIDDLEBURY*    CLOUDY    58  58 100 N3        29.66R
RUTLAND*       CLOUDY    59  55  88 NW9G20    29.66R
SPRINGFIELD    CLOUDY    62  57  83 W7        29.61R
HIGHGATE*      CLOUDY    58  56  95 CALM      29.66R
NEWPORT*       DRIZZLE  N/A N/A N/A W9G17     29.61R
BENNINGTON     CLOUDY    60  58  92 NW8       29.67R
SUTTON*          N/A     57 N/A N/A MISG        N/A
GALLUP MILLS*    N/A     45 N/A N/A MISG        N/A
UNION VILLAGE*   N/A     61 N/A N/A MISG        N/A
MT. MANSFIELD*   N/A     48 N/A N/A NW20        N/A

_____LAKE CHAMPLAIN_____


CITY           SKY/WX    TMP DP  RH WIND       PRES   REMARKS
COLCHESTER RF*   N/A     61  57  88 N23         N/A
DIAMOND ISL*     N/A     61  55  82 NW16        N/A

$$

NYZ007-026>031-035-052-083-290500-
_____NORTHERN NEW YORK_____


CITY           SKY/WX    TMP DP  RH WIND       PRES   REMARKS
PLATTSBURGH    CLOUDY    59  55  87 NW9       29.67R
SARANAC LAKE   CLOUDY    54  53  97 W3        29.71S
MASSENA        MOCLDY    60  52  74 NW9       29.73R
OGDENSBURG*    CLEAR     57  54  88 NW7       29.74S
POTSDAM*       PTCLDY    55  55 100 NW3       29.73S
PARISHVILLE*     N/A     59 N/A N/A W7          N/A
WATERTOWN      CLOUDY    60  51  72 W3        29.77S
FT DRUM        CLOUDY    57  56  99 W3        29.77R
ALBANY         CLOUDY    62  58  86 W9        29.69R
GLENS FALLS    CLOUDY    62  57  83 NW6       29.66R

$$
NHZ002-005-011-290500-
_____NEW HAMPSHIRE_____


CITY           SKY/WX    TMP DP  RH WIND       PRES   REMARKS
LEBANON        CLOUDY    63  58  83 NW5       29.59R
KEENE          PTCLDY    63  52  67 CALM      29.61R
MT WASHINGTON  LGT RAIN  46  46 100 NW30        N/A  VSB 0
PLYMOUTH       CLOUDY    64  58  83 W9        29.55R
WHITEFIELD     LGT RAIN  60  57  89 CALM      29.57R

$$

_____REGIONAL QUEBEC LOCATIONS_____


CITY           SKY/WX    TMP DP  RH WIND       PRES   REMARKS
MONTREAL       CLOUDY    61  57  88 W7        29.67S
QUEBEC CITY    LGT RAIN  59  55  88 N10       29.54F
SHERBROOKE     LGT RAIN  57  57 100 W8        29.56R FOG

_____REGIONAL ONTARIO LOCATIONS_____


CITY           SKY/WX    TMP DP  RH WIND       PRES   REMARKS
OTTAWA         PTCLDY    57  50  77 NW9       29.75S

______KEY______
VSB  - VISIBILITY IN MILES
WCI  - WIND CHILL INDEX
HX   - HEAT INDEX
$$
NNNN


USA.gov is the U.S. government's official web portal to all federal, state and local government web resources and services.